Погода в Среднем Убукуне

Россия / Республика Бурятия     51°27′32″N   106°43′16″E
темп.,
°C
ветер,
м/с
пор.,
м/с
влажн.,
%
обл.,
%
осадки,
мм/ч
давл.,
гПа
погр.,
м
28 июня, вт
вт2823:00+20зсз224963 0.0 100311
02:00+19сз11544 0.0 100411
05:00+17ссз11613 0.0 100411
08:00+24ююв124497 0.0 1003324
11:00+29ююз3433100 0.0 10011027
14:00+32юз4428100 0.0 10001781
17:00+32юз332336 0.0 9981884
20:00+28з11360 0.0 99811
29 июня, ср
ср2923:00+22сз11463 0.0 100011
02:00+15сз48814 0.1 1005204
05:00+17сз488282 0.0 1006486
08:00+18сз367772 0.1 1007648
11:00+21сз466567 0.1 1007734
14:00+24зсз3452100 0.1 1005747
17:00+27сз334685 0.0 1002804
20:00+26св12520 0.0 100151
30 июня, чт
чт3023:00+17ссз22855 0.2 100427
02:00+16зсз228821 0.2 100421
05:00+15зсз2290100 0.0 100319
08:00+20ссз12675 0.0 1003481
11:00+26ююз114830 0.0 10021492
14:00+27з334491 0.0 10021625
17:00+27зсз344566 0.0 10011072
20:00+26ссз23510 0.0 100285
1 июля, пт
пт123:00+18сз32745 0.0 100419
02:00+16сз227713 0.0 100512
05:00+14сз11790 0.0 100511
08:00+22юв11510 0.0 1005264
11:00+28ю23410 0.0 10031124
14:00+32юз44280 0.0 10012368
17:00+32ююз43220 0.0 9992031
20:00+28ююз22344 0.0 99811
2 июля, сб
сб223:00+22сз21410 0.0 99911
02:00+19ссз114671 0.0 99911
05:00+18ссз1151100 0.0 99911
08:00+24вюв113899 0.0 998236
11:00+31ю24286 0.0 9971155
14:00+34зсз5423100 0.0 9962068
17:00+26сз5843100 0.0 998734
20:00+20сз347887 0.8 99989